Location: Mason
(37.5237°N, 89.2543°W)
Time: 20:19:48
(UTC+00:00)

PAYLOAD B - Pass Details

Date: 08 December 2021
Orbit: 848 x 872 km, 99.1° (Epoch: 17 January)

Event Time Altitude Azimuth Distance (km) Brightness Sun altitude
Rises 23:46:19 0° 161° (SSE) 3,446 7.4 -13.1°
Reaches altitude 10° 23:48:41 10° 161° (SSE) 2,511 6.7 -13.6°
Maximum altitude 23:54:16 81° 75° (ENE) 886 4.2 -14.6°
Drops below altitude 10° 23:59:53 10° 348° (NNW) 2,520 6.6 -15.7°
Sets 00:02:16 0° 348° (NNW) 3,459 7.3 -16.1°
